User: anonymous   Login
Location: Caltech
(34.1382°N, 118.1253°W)
Time: 18:49:23
(UTC-07:00)
Language:

RS-15 - Orbit

View from above orbital plane
View from above orbital plane
View from above satellite
View from above satellite

Ground track
Ground track

The orbit data is extracted from the following two-line orbital elements,

1 23439U 94085A   14294.45205481 -.00000048  00000-0 -16345-3 0  7305
2 23439 064.8184 347.5387 0147164 057.7983 033.6144 11.27561048816239
Epoch (UTC): 21 October 2014 10:50:57
Eccentricity: 0.0147164
inclination: 64.8184°
perigee height: 1899 km
apogee height: 2146 km
right ascension of ascending node: 347.5387°
argument of perigee: 57.7983°
revolutions per day: 11.27561048
mean anomaly at epoch: 33.6144°
orbit number at epoch: 81623

The dashed part of the orbit path shows where the satellite is in the earth's shadow,  

DLR